| time (UTC) | temp F | wind direction | speed knots | gust knots | rain 1hr in | rain 24hr in | rain mn in | humidity % | barometer mb |
| 20260905154616 | 69 | 288 | 4.3 | 9.6 | 0.00 | 0.00 | 0.00 | 58 | 1025.2 |
| 20260905154102 | 69 | 282 | 5.2 | 9.6 | 0.00 | 0.00 | 0.00 | 57 | 1025.2 |
| 20260905153558 | 69 | 321 | 4.3 | 9.6 | 0.00 | 0.00 | 0.00 | 56 | 1025.1 |
| 20260905153102 | 69 | 308 | 5.2 | 12.2 | 0.00 | 0.00 | 0.00 | 58 | 1025.2 |
| 20260905152558 | 69 | 332 | 5.2 | 12.2 | 0.00 | 0.00 | 0.00 | 59 | 1025.4 |
| 20260905152058 | 69 | 275 | 5.2 | 12.2 | 0.00 | 0.00 | 0.00 | 58 | 1025.4 |
| 20260905151603 | 69 | 317 | 6.1 | 10.4 | 0.00 | 0.00 | 0.00 | 58 | 1025.3 |
| 20260905151059 | 69 | 333 | 4.3 | 10.4 | 0.00 | 0.00 | 0.00 | 58 | 1025.4 |
| 20260905150558 | 69 | 252 | 3.5 | 12.2 | 0.00 | 0.00 | 0.00 | 59 | 1025.3 |
| 20260905150109 | 69 | 290 | 6.1 | 12.2 | 0.00 | 0.00 | 0.00 | 57 | 1025.4 |
| 20260905145559 | 70 | 286 | 5.2 | 11.3 | 0.00 | 0.00 | 0.00 | 57 | 1025.4 |
| 20260905145058 | 70 | 289 | 4.3 | 10.4 | 0.00 | 0.00 | 0.00 | 58 | 1025.5 |
| 20260905144605 | 69 | 325 | 7.0 | 12.2 | 0.00 | 0.00 | 0.00 | 59 | 1025.6 |
| 20260905144058 | 70 | 291 | 4.3 | 12.2 | 0.00 | 0.00 | 0.00 | 57 | 1025.5 |
| 20260905143558 | 69 | 289 | 5.2 | 12.2 | 0.00 | 0.00 | 0.00 | 59 | 1025.7 |
| 20260905143110 | 69 | 286 | 6.1 | 13.0 | 0.00 | 0.00 | 0.00 | 60 | 1025.7 |
| 20260905142600 | 69 | 272 | 6.1 | 13.0 | 0.00 | 0.00 | 0.00 | 57 | 1025.7 |
| 20260905142058 | 69 | 294 | 7.8 | 13.0 | 0.00 | 0.00 | 0.00 | 58 | 1025.6 |
| 20260905141606 | 69 | 296 | 7.8 | 13.0 | 0.00 | 0.00 | 0.00 | 59 | 1025.7 |
| 20260905141058 | 69 | 261 | 4.3 | 11.3 | 0.00 | 0.00 | 0.00 | 56 | 1025.6 |
| 20260905140558 | 69 | 344 | 4.3 | 13.9 | 0.00 | 0.00 | 0.00 | 59 | 1025.7 |
| 20260905140105 | 69 | 360 | 4.3 | 13.9 | 0.00 | 0.00 | 0.00 | 58 | 1025.8 |
| 20260905135558 | 70 | 295 | 7.8 | 13.9 | 0.00 | 0.00 | 0.00 | 57 | 1025.8 |
| 20260905135102 | 70 | 331 | 4.3 | 11.3 | 0.00 | 0.00 | 0.00 | 59 | 1025.8 |
| 20260905134605 | 69 | 300 | 6.1 | 13.0 | 0.00 | 0.00 | 0.00 | 58 | 1025.8 |
| 20260905134058 | 70 | 271 | 4.3 | 13.0 | 0.00 | 0.00 | 0.00 | 59 | 1025.8 |
| 20260905133558 | 70 | 290 | 7.0 | 10.4 | 0.00 | 0.00 | 0.00 | 59 | 1025.9 |
| 20260905133106 | 69 | 294 | 6.1 | 11.3 | 0.00 | 0.00 | 0.00 | 57 | 1026.0 |
| 20260905132558 | 69 | 309 | 5.2 | 13.0 | 0.00 | 0.00 | 0.00 | 58 | 1025.8 |
| 20260905132059 | 69 | 321 | 5.2 | 13.0 | 0.00 | 0.00 | 0.00 | 59 | 1025.8 |
| 20260905131604 | 69 | 342 | 7.8 | 13.0 | 0.00 | 0.00 | 0.00 | 57 | 1025.8 |
| 20260905131103 | 70 | 258 | 7.0 | 12.2 | 0.00 | 0.00 | 0.00 | 59 | 1025.6 |
| 20260905130559 | 69 | 304 | 5.2 | 12.2 | 0.00 | 0.00 | 0.00 | 60 | 1025.7 |
| 20260905130104 | 69 | 299 | 6.1 | 12.2 | 0.00 | 0.00 | 0.00 | 59 | 1025.6 |
| 20260905125558 | 68 | 360 | 6.1 | 12.2 | 0.00 | 0.00 | 0.00 | 60 | 1025.6 |
| 20260905125058 | 68 | 266 | 7.0 | 12.2 | 0.00 | 0.00 | 0.00 | 60 | 1025.6 |
| 20260905124605 | 68 | 315 | 6.1 | 12.2 | 0.00 | 0.00 | 0.00 | 60 | 1025.6 |
| 20260905124059 | 68 | 313 | 4.3 | 12.2 | 0.00 | 0.00 | 0.00 | 62 | 1025.5 |
| 20260905123558 | 68 | 298 | 8.7 | 12.2 | 0.00 | 0.00 | 0.00 | 60 | 1025.6 |
| 20260905123110 | 69 | 304 | 6.1 | 11.3 | 0.00 | 0.00 | 0.00 | 59 | 1025.7 |
| 20260905122559 | 69 | 294 | 5.2 | 11.3 | 0.00 | 0.00 | 0.00 | 60 | 1025.6 |
| 20260905122059 | 69 | 289 | 7.0 | 11.3 | 0.00 | 0.00 | 0.00 | 59 | 1025.7 |
| 20260905121606 | 68 | 328 | 5.2 | 11.3 | 0.00 | 0.00 | 0.00 | 60 | 1025.5 |
| 20260905121059 | 67 | 300 | 4.3 | 11.3 | 0.00 | 0.00 | 0.00 | 60 | 1025.5 |
| 20260905120559 | 68 | 248 | 5.2 | 13.0 | 0.00 | 0.00 | 0.00 | 59 | 1025.5 |
| 20260905120106 | 68 | 312 | 6.1 | 13.0 | 0.00 | 0.00 | 0.00 | 59 | 1025.6 |
| 20260905115558 | 68 | 300 | 7.8 | 13.0 | 0.00 | 0.00 | 0.00 | 59 | 1025.5 |
| 20260905115058 | 67 | 319 | 7.0 | 11.3 | 0.00 | 0.00 | 0.00 | 59 | 1025.4 |
| 20260905114606 | 67 | 327 | 5.2 | 11.3 | 0.00 | 0.00 | 0.00 | 59 | 1025.4 |
| 20260905114058 | 68 | 300 | 6.1 | 11.3 | 0.00 | 0.00 | 0.00 | 60 | 1025.6 |
| 20260905113559 | 67 | 291 | 6.1 | 13.0 | 0.00 | 0.00 | 0.00 | 60 | 1025.5 |
| 20260905113100 | 68 | 302 | 7.8 | 13.0 | 0.00 | 0.00 | 0.00 | 58 | 1025.3 |
| 20260905112559 | 67 | 325 | 7.0 | 12.2 | 0.00 | 0.00 | 0.00 | 59 | 1025.2 |
| 20260905112100 | 68 | 315 | 5.2 | 12.2 | 0.00 | 0.00 | 0.00 | 58 | 1025.2 |
| 20260905111605 | 68 | 351 | 6.1 | 13.0 | 0.00 | 0.00 | 0.00 | 59 | 1025.3 |
| 20260905111059 | 68 | 277 | 7.8 | 13.0 | 0.00 | 0.00 | 0.00 | 58 | 1025.2 |
| 20260905110600 | 68 | 315 | 3.5 | 10.4 | 0.00 | 0.00 | 0.00 | 61 | 1025.2 |
| 20260905110104 | 67 | 267 | 6.1 | 10.4 | 0.00 | 0.00 | 0.00 | 59 | 1025.4 |
| 20260905105559 | 68 | 301 | 4.3 | 10.4 | 0.00 | 0.00 | 0.00 | 59 | 1025.5 |
| 20260905105101 | 67 | 291 | 5.2 | 10.4 | 0.00 | 0.00 | 0.00 | 59 | 1025.5 |
| 20260905104603 | 67 | 314 | 3.5 | 10.4 | 0.00 | 0.00 | 0.00 | 59 | 1025.5 |
| 20260905104059 | 66 | 300 | 4.3 | 10.4 | 0.00 | 0.00 | 0.00 | 62 | 1025.4 |
| 20260905103558 | 65 | 296 | 4.3 | 10.4 | 0.00 | 0.00 | 0.00 | 63 | 1025.5 |
| 20260905103106 | 65 | 284 | 6.1 | 10.4 | 0.00 | 0.00 | 0.00 | 62 | 1025.4 |
| 20260905102557 | 65 | 339 | 6.1 | 10.4 | 0.00 | 0.00 | 0.00 | 61 | 1025.5 |
| 20260905102059 | 65 | 290 | 5.2 | 11.3 | 0.00 | 0.00 | 0.00 | 62 | 1025.5 |
| 20260905101609 | 66 | 284 | 6.1 | 11.3 | 0.00 | 0.00 | 0.00 | 62 | 1025.3 |
| 20260905101100 | 66 | 319 | 4.3 | 11.3 | 0.00 | 0.00 | 0.00 | 61 | 1025.3 |
| 20260905100558 | 66 | 298 | 5.2 | 11.3 | 0.00 | 0.00 | 0.00 | 62 | 1025.3 |
| 20260905100124 | 66 | 296 | 3.5 | 10.4 | 0.00 | 0.00 | 0.00 | 63 | 1025.3 |
| 20260905095558 | 65 | 276 | 4.3 | 10.4 | 0.00 | 0.00 | 0.00 | 63 | 1025.3 |
| 20260905095058 | 65 | 290 | 4.3 | 10.4 | 0.00 | 0.00 | 0.00 | 63 | 1025.3 |
| 20260905094607 | 65 | 340 | 5.2 | 10.4 | 0.00 | 0.00 | 0.00 | 62 | 1025.3 |
| 20260905094058 | 66 | 317 | 5.2 | 10.4 | 0.00 | 0.00 | 0.00 | 62 | 1025.1 |
| 20260905093558 | 66 | 5 | 5.2 | 9.6 | 0.00 | 0.00 | 0.00 | 61 | 1025.0 |
| 20260905093101 | 65 | 328 | 5.2 | 9.6 | 0.00 | 0.00 | 0.00 | 61 | 1025.0 |
| 20260905092601 | 65 | 352 | 5.2 | 9.6 | 0.00 | 0.00 | 0.00 | 64 | 1025.0 |
| 20260905092057 | 64 | 309 | 5.2 | 9.6 | 0.00 | 0.00 | 0.00 | 64 | 1024.9 |
| 20260905091614 | 64 | 327 | 4.3 | 9.6 | 0.00 | 0.00 | 0.00 | 63 | 1024.9 |
| 20260905091100 | 64 | 313 | 4.3 | 10.4 | 0.00 | 0.00 | 0.00 | 64 | 1024.7 |
| 20260905090601 | 64 | 327 | 6.1 | 10.4 | 0.00 | 0.00 | 0.00 | 62 | 1024.7 |
| 20260905085601 | 65 | 300 | 6.1 | 11.3 | 0.00 | 0.00 | 0.00 | 63 | 1024.5 |
| 20260905085059 | 65 | 314 | 5.2 | 11.3 | 0.00 | 0.00 | 0.00 | 64 | 1024.7 |
| 20260905084603 | 64 | 343 | 4.3 | 10.4 | 0.00 | 0.00 | 0.00 | 67 | 1024.5 |
| 20260905084058 | 64 | 322 | 6.1 | 10.4 | 0.00 | 0.00 | 0.00 | 67 | 1024.5 |
| 20260905083558 | 63 | 321 | 5.2 | 10.4 | 0.00 | 0.00 | 0.00 | 68 | 1024.4 |
| 20260905083124 | 63 | 336 | 6.1 | 10.4 | 0.00 | 0.00 | 0.00 | 68 | 1024.5 |
| 20260905082559 | 63 | 302 | 4.3 | 11.3 | 0.00 | 0.00 | 0.00 | 69 | 1024.4 |
| 20260905082059 | 63 | 305 | 5.2 | 11.3 | 0.00 | 0.00 | 0.00 | 69 | 1024.3 |
| 20260905081619 | 62 | 323 | 5.2 | 11.3 | 0.00 | 0.00 | 0.00 | 69 | 1024.3 |
| 20260905081100 | 62 | 334 | 5.2 | 11.3 | 0.00 | 0.00 | 0.00 | 70 | 1024.3 |
| 20260905080558 | 62 | 323 | 5.2 | 9.6 | 0.00 | 0.00 | 0.00 | 70 | 1024.3 |
| 20260905080104 | 62 | 338 | 4.3 | 7.8 | 0.00 | 0.00 | 0.00 | 71 | 1024.2 |
| 20260905075559 | 62 | 321 | 4.3 | 10.4 | 0.00 | 0.02 | 0.00 | 71 | 1024.1 |
| 20260905075059 | 62 | 346 | 4.3 | 10.4 | 0.00 | 0.02 | 0.00 | 70 | 1024.0 |
| 20260905074602 | 63 | 360 | 6.1 | 10.4 | 0.00 | 0.02 | 0.00 | 70 | 1024.0 |
| 20260905074058 | 63 | 300 | 5.2 | 10.4 | 0.00 | 0.02 | 0.00 | 70 | 1024.0 |
| 20260905073558 | 63 | 329 | 4.3 | 9.6 | 0.00 | 0.02 | 0.00 | 70 | 1024.0 |
| 20260905073101 | 62 | 288 | 4.3 | 9.6 | 0.00 | 0.02 | 0.00 | 71 | 1024.0 |
| 20260905072602 | 62 | 313 | 3.5 | 8.7 | 0.00 | 0.02 | 0.00 | 71 | 1023.9 |
| 20260905072101 | 62 | 315 | 3.5 | 7.8 | 0.00 | 0.02 | 0.00 | 72 | 1023.8 |
| 20260905071615 | 61 | 338 | 3.5 | 7.8 | 0.00 | 0.02 | 0.00 | 73 | 1023.8 |
| 20260905071059 | 61 | 298 | 3.5 | 8.7 | 0.00 | 0.02 | 0.00 | 73 | 1023.7 |
| 20260905070603 | 60 | 308 | 3.5 | 9.6 | 0.00 | 0.02 | 0.00 | 74 | 1023.7 |
| 20260905070107 | 60 | 352 | 3.5 | 9.6 | 0.00 | 0.02 | 0.00 | 74 | 1023.6 |
| 20260905065601 | 60 | 306 | 4.3 | 9.6 | 0.00 | 0.02 | 0.00 | 75 | 1023.6 |
| 20260905065058 | 60 | 291 | 2.6 | 11.3 | 0.00 | 0.02 | 0.00 | 75 | 1023.6 |
| 20260905064618 | 60 | 319 | 5.2 | 11.3 | 0.00 | 0.02 | 0.00 | 74 | 1023.5 |
| 20260905064058 | 60 | 321 | 4.3 | 10.4 | 0.00 | 0.02 | 0.00 | 75 | 1023.5 |
| 20260905063558 | 60 | 312 | 4.3 | 10.4 | 0.00 | 0.02 | 0.00 | 75 | 1023.4 |
| 20260905063129 | 60 | 317 | 6.1 | 9.6 | 0.00 | 0.02 | 0.00 | 75 | 1023.5 |
| 20260905062558 | 59 | 327 | 3.5 | 8.7 | 0.00 | 0.02 | 0.00 | 75 | 1023.4 |
| 20260905062057 | 59 | 323 | 4.3 | 10.4 | 0.00 | 0.02 | 0.00 | 75 | 1023.2 |
| 20260905061608 | 59 | 319 | 4.3 | 10.4 | 0.00 | 0.02 | 0.00 | 75 | 1023.2 |
| 20260905061059 | 59 | 313 | 3.5 | 8.7 | 0.00 | 0.02 | 0.00 | 76 | 1023.2 |
| 20260905060600 | 59 | 306 | 4.3 | 9.6 | 0.00 | 0.02 | 0.00 | 75 | 1023.3 |
| 20260905060107 | 59 | 295 | 4.3 | 9.6 | 0.00 | 0.02 | 0.00 | 75 | 1023.1 |
| 20260905055600 | 59 | 320 | 3.5 | 10.4 | 0.00 | 0.07 | 0.00 | 75 | 1023.2 |
| 20260905055101 | 59 | 321 | 3.5 | 10.4 | 0.00 | 0.07 | 0.00 | 75 | 1023.0 |
| 20260905054710 | 59 | 298 | 6.1 | 10.4 | 0.00 | 0.07 | 0.00 | 75 | 1023.0 |
| 20260905054058 | 59 | 336 | 4.3 | 8.7 | 0.00 | 0.07 | 0.00 | 76 | 1023.0 |
| 20260905053558 | 59 | 327 | 3.5 | 8.7 | 0.00 | 0.07 | 0.00 | 76 | 1023.0 |
| 20260905053101 | 59 | 313 | 3.5 | 8.7 | 0.00 | 0.07 | 0.00 | 76 | 1022.9 |
| 20260905052557 | 59 | 315 | 4.3 | 9.6 | 0.00 | 0.07 | 0.00 | 75 | 1022.8 |
| 20260905052059 | 59 | 352 | 4.3 | 9.6 | 0.00 | 0.07 | 0.00 | 75 | 1022.8 |
| 20260905051606 | 59 | 329 | 2.6 | 7.0 | 0.00 | 0.07 | 0.00 | 74 | 1022.8 |
| 20260905051057 | 59 | 325 | 2.6 | 7.8 | 0.00 | 0.07 | 0.00 | 73 | 1022.7 |
| 20260905050558 | 59 | 321 | 2.6 | 8.7 | 0.00 | 0.07 | 0.00 | 73 | 1022.6 |
| 20260905050107 | 59 | 288 | 3.5 | 8.7 | 0.00 | 0.07 | 0.00 | 73 | 1022.5 |
| 20260905045559 | 59 | 311 | 3.5 | 8.7 | 0.00 | 0.07 | 0.00 | 73 | 1022.6 |
| 20260905045058 | 59 | 310 | 5.2 | 8.7 | 0.00 | 0.07 | 0.00 | 75 | 1022.6 |
| 20260905044609 | 59 | 290 | 2.6 | 8.7 | 0.00 | 0.07 | 0.00 | 77 | 1022.6 |
| 20260905044058 | 59 | 298 | 3.5 | 8.7 | 0.00 | 0.07 | 0.00 | 77 | 1022.4 |
| 20260905043600 | 59 | 325 | 4.3 | 8.7 | 0.00 | 0.07 | 0.00 | 78 | 1022.3 |
| 20260905043106 | 59 | 318 | 3.5 | 10.4 | 0.00 | 0.07 | 0.00 | 77 | 1022.2 |
| 20260905042557 | 59 | 316 | 4.3 | 10.4 | 0.00 | 0.07 | 0.00 | 77 | 1022.2 |
| 20260905042058 | 59 | 313 | 5.2 | 12.2 | 0.00 | 0.07 | 0.00 | 77 | 1022.3 |
| 20260905041609 | 59 | 360 | 5.2 | 12.2 | 0.00 | 0.07 | 0.00 | 76 | 1022.2 |
| 20260905041057 | 59 | 311 | 6.1 | 12.2 | 0.00 | 0.07 | 0.00 | 76 | 1022.2 |
| 20260905040559 | 59 | 315 | 5.2 | 11.3 | 0.00 | 0.07 | 0.00 | 77 | 1022.1 |
| 20260905040112 | 59 | 324 | 4.3 | 10.4 | 0.00 | 0.07 | 0.00 | 77 | 1022.2 |
| 20260905035558 | 59 | 327 | 3.5 | 10.4 | 0.00 | 0.07 | 0.00 | 76 | 1022.1 |
| 20260905035058 | 59 | 302 | 5.2 | 10.4 | 0.00 | 0.07 | 0.00 | 76 | 1022.0 |
| 20260905034608 | 59 | 309 | 5.2 | 11.3 | 0.00 | 0.07 | 0.00 | 76 | 1022.0 |
| 20260905034100 | 59 | 306 | 4.3 | 11.3 | 0.00 | 0.07 | 0.00 | 76 | 1021.9 |
| 20260905033558 | 59 | 337 | 6.1 | 11.3 | 0.00 | 0.07 | 0.00 | 76 | 1021.9 |
| 20260905033105 | 59 | 329 | 6.1 | 11.3 | 0.00 | 0.07 | 0.00 | 77 | 1021.9 |
| 20260905032601 | 59 | 321 | 6.1 | 10.4 | 0.00 | 0.07 | 0.00 | 78 | 1021.7 |
| 20260905032100 | 59 | 307 | 4.3 | 9.6 | 0.00 | 0.07 | 0.00 | 79 | 1021.6 |
| 20260905031611 | 59 | 308 | 5.2 | 9.6 | 0.00 | 0.07 | 0.00 | 79 | 1021.7 |
| 20260905031058 | 59 | 298 | 4.3 | 9.6 | 0.00 | 0.07 | 0.00 | 79 | 1021.7 |
| 20260905030558 | 59 | 319 | 3.5 | 8.7 | 0.00 | 0.07 | 0.00 | 79 | 1021.7 |
| 20260905025558 | 59 | 325 | 5.2 | 9.6 | 0.00 | 0.07 | 0.00 | 79 | 1021.5 |
| 20260905025058 | 59 | 325 | 4.3 | 10.4 | 0.00 | 0.07 | 0.00 | 78 | 1021.5 |
| 20260905024615 | 60 | 319 | 5.2 | 10.4 | 0.00 | 0.07 | 0.00 | 78 | 1021.5 |
| 20260905024058 | 60 | 298 | 5.2 | 10.4 | 0.00 | 0.07 | 0.00 | 78 | 1021.6 |
| 20260905023601 | 60 | 298 | 5.2 | 9.6 | 0.00 | 0.07 | 0.00 | 79 | 1021.5 |
| 20260905023100 | 60 | 305 | 4.3 | 11.3 | 0.00 | 0.07 | 0.00 | 78 | 1021.5 |
| 20260905022600 | 60 | 334 | 6.1 | 11.3 | 0.00 | 0.07 | 0.00 | 78 | 1021.5 |
| 20260905022058 | 61 | 342 | 6.1 | 11.3 | 0.00 | 0.07 | 0.00 | 78 | 1021.5 |
| 20260905021610 | 61 | 335 | 5.2 | 12.2 | 0.00 | 0.07 | 0.00 | 78 | 1021.3 |
| 20260905021059 | 61 | 303 | 6.1 | 12.2 | 0.00 | 0.07 | 0.00 | 79 | 1021.4 |
| 20260905020601 | 61 | 311 | 4.3 | 11.3 | 0.00 | 0.07 | 0.00 | 80 | 1021.4 |
| 20260905015558 | 61 | 334 | 5.2 | 9.6 | 0.00 | 0.07 | 0.00 | 79 | 1021.2 |
| 20260905015058 | 61 | 285 | 5.2 | 9.6 | 0.00 | 0.07 | 0.00 | 78 | 1021.2 |
| 20260905014604 | 61 | 334 | 4.3 | 10.4 | 0.00 | 0.07 | 0.00 | 78 | 1021.0 |
| 20260905014058 | 61 | 327 | 5.2 | 10.4 | 0.00 | 0.07 | 0.00 | 78 | 1021.0 |
| 20260905013558 | 61 | 294 | 5.2 | 10.4 | 0.00 | 0.07 | 0.00 | 78 | 1021.1 |
| 20260905013104 | 61 | 296 | 4.3 | 11.3 | 0.00 | 0.07 | 0.00 | 77 | 1021.1 |
| 20260905012600 | 61 | 316 | 5.2 | 11.3 | 0.00 | 0.07 | 0.00 | 77 | 1021.0 |
| 20260905012058 | 61 | 294 | 4.3 | 8.7 | 0.00 | 0.07 | 0.00 | 78 | 1020.9 |
| 20260905011604 | 61 | 306 | 2.6 | 8.7 | 0.00 | 0.07 | 0.00 | 78 | 1020.9 |
| 20260905011100 | 61 | 316 | 4.3 | 8.7 | 0.00 | 0.07 | 0.00 | 78 | 1020.9 |
| 20260905010558 | 61 | 346 | 4.3 | 9.6 | 0.00 | 0.07 | 0.00 | 77 | 1020.9 |
| 20260905010110 | 61 | 295 | 5.2 | 9.6 | 0.00 | 0.07 | 0.00 | 77 | 1020.7 |
| 20260905005558 | 61 | 333 | 4.3 | 9.6 | 0.00 | 0.07 | 0.00 | 77 | 1021.0 |
| 20260905005058 | 62 | 317 | 3.5 | 11.3 | 0.00 | 0.07 | 0.00 | 77 | 1021.0 |
| 20260905004608 | 62 | 332 | 5.2 | 11.3 | 0.00 | 0.07 | 0.00 | 77 | 1020.8 |
| 20260905004058 | 62 | 295 | 6.1 | 12.2 | 0.00 | 0.07 | 0.00 | 76 | 1020.8 |
| 20260905003558 | 62 | 306 | 4.3 | 12.2 | 0.00 | 0.07 | 0.00 | 76 | 1020.9 |
| 20260905003102 | 62 | 325 | 5.2 | 11.3 | 0.00 | 0.07 | 0.00 | 76 | 1020.8 |
| 20260905002559 | 62 | 360 | 4.3 | 12.2 | 0.00 | 0.07 | 0.00 | 76 | 1020.9 |
| 20260905002101 | 62 | 309 | 5.2 | 12.2 | 0.00 | 0.07 | 0.00 | 76 | 1020.8 |
| 20260905001603 | 63 | 290 | 6.1 | 12.2 | 0.00 | 0.07 | 0.00 | 76 | 1020.7 |
| 20260905001058 | 63 | 288 | 5.2 | 10.4 | 0.00 | 0.07 | 0.00 | 76 | 1020.7 |
| 20260905000558 | 63 | 299 | 4.3 | 10.4 | 0.00 | 0.07 | 0.00 | 75 | 1020.6 |
| 20260905000109 | 63 | 294 | 5.2 | 9.6 | 0.00 | 0.07 | 0.00 | 75 | 1020.6 |
| 20260904235558 | 63 | 273 | 4.3 | 9.6 | 0.00 | 0.07 | 0.00 | 75 | 1020.6 |
| 20260904235100 | 63 | 319 | 4.3 | 12.2 | 0.00 | 0.07 | 0.00 | 76 | 1020.5 |
| 20260904234611 | 63 | 288 | 7.0 | 12.2 | 0.00 | 0.07 | 0.00 | 76 | 1020.5 |
| 20260904234100 | 63 | 281 | 4.3 | 13.0 | 0.00 | 0.07 | 0.00 | 75 | 1020.6 |
| 20260904233558 | 63 | 311 | 7.0 | 13.0 | 0.00 | 0.07 | 0.00 | 75 | 1020.5 |
| 20260904233107 | 63 | 360 | 4.3 | 7.8 | 0.00 | 0.07 | 0.00 | 76 | 1020.5 |
| 20260904232559 | 63 | 304 | 3.5 | 7.0 | 0.00 | 0.07 | 0.00 | 76 | 1020.5 |
| 20260904232058 | 63 | 306 | 3.5 | 11.3 | 0.00 | 0.07 | 0.00 | 76 | 1020.5 |
| 20260904231608 | 63 | 289 | 5.2 | 11.3 | 0.00 | 0.07 | 0.00 | 75 | 1020.5 |
| 20260904231058 | 63 | 315 | 5.2 | 11.3 | 0.00 | 0.07 | 0.00 | 75 | 1020.4 |
| 20260904230559 | 63 | 298 | 4.3 | 13.0 | 0.00 | 0.07 | 0.00 | 75 | 1020.5 |
| 20260904230113 | 63 | 360 | 5.2 | 14.8 | 0.00 | 0.07 | 0.00 | 75 | 1020.4 |
| 20260904225559 | 63 | 294 | 7.8 | 14.8 | 0.00 | 0.07 | 0.07 | 73 | 1020.4 |
| 20260904225059 | 63 | 302 | 8.7 | 13.9 | 0.00 | 0.07 | 0.07 | 74 | 1020.5 |
| 20260904224606 | 63 | 288 | 7.8 | 14.8 | 0.00 | 0.07 | 0.07 | 74 | 1020.4 |
| 20260904224101 | 63 | 305 | 7.8 | 14.8 | 0.00 | 0.07 | 0.07 | 73 | 1020.4 |
| 20260904223558 | 63 | 293 | 8.7 | 14.8 | 0.00 | 0.07 | 0.07 | 73 | 1020.3 |
| 20260904223104 | 63 | 274 | 7.8 | 14.8 | 0.00 | 0.07 | 0.07 | 73 | 1020.4 |
| 20260904222559 | 63 | 305 | 7.8 | 18.2 | 0.00 | 0.07 | 0.07 | 73 | 1020.4 |
| 20260904222057 | 63 | 296 | 8.7 | 18.2 | 0.00 | 0.07 | 0.07 | 73 | 1020.4 |
| 20260904221609 | 63 | 283 | 10.4 | 18.2 | 0.00 | 0.07 | 0.07 | 73 | 1020.4 |
| 20260904221057 | 63 | 352 | 9.6 | 13.9 | 0.00 | 0.07 | 0.07 | 73 | 1020.3 |
| 20260904220601 | 63 | 294 | 7.8 | 13.0 | 0.00 | 0.07 | 0.07 | 74 | 1020.4 |
| 20260904220109 | 63 | 308 | 7.8 | 12.2 | 0.00 | 0.07 | 0.07 | 73 | 1020.3 |
| 20260904215558 | 63 | 360 | 7.8 | 13.0 | 0.00 | 0.07 | 0.07 | 72 | 1020.2 |
| 20260904215058 | 63 | 360 | 7.8 | 14.8 | 0.00 | 0.07 | 0.07 | 73 | 1020.3 |
| 20260904214603 | 63 | 289 | 5.2 | 14.8 | 0.00 | 0.07 | 0.07 | 73 | 1020.2 |
| 20260904214101 | 63 | 294 | 7.8 | 15.6 | 0.00 | 0.07 | 0.07 | 74 | 1020.2 |
| 20260904213558 | 63 | 300 | 7.8 | 15.6 | 0.00 | 0.07 | 0.07 | 74 | 1020.1 |
| 20260904213104 | 63 | 303 | 7.8 | 14.8 | 0.00 | 0.07 | 0.07 | 74 | 1020.1 |
| 20260904212558 | 63 | 280 | 7.8 | 14.8 | 0.00 | 0.07 | 0.07 | 73 | 1020.1 |
| 20260904212058 | 63 | 286 | 7.0 | 13.0 | 0.00 | 0.07 | 0.07 | 73 | 1020.0 |
| 20260904211607 | 63 | 292 | 8.7 | 15.6 | 0.00 | 0.07 | 0.07 | 72 | 1019.9 |
| 20260904211057 | 63 | 276 | 7.0 | 17.4 | 0.00 | 0.07 | 0.07 | 74 | 1020.0 |
| 20260904210558 | 63 | 249 | 8.7 | 17.4 | 0.00 | 0.07 | 0.07 | 73 | 1019.8 |
| 20260904210105 | 63 | 284 | 8.7 | 17.4 | 0.00 | 0.07 | 0.07 | 72 | 1019.8 |
| 20260904205559 | 63 | 330 | 8.7 | 15.6 | 0.00 | 0.07 | 0.07 | 73 | 1019.8 |
| 20260904205058 | 62 | 295 | 7.8 | 14.8 | 0.00 | 0.07 | 0.07 | 73 | 1019.7 |
| 20260904204609 | 62 | 298 | 8.7 | 14.8 | 0.00 | 0.07 | 0.07 | 73 | 1019.6 |
| 20260904204058 | 62 | 298 | 8.7 | 15.6 | 0.00 | 0.07 | 0.07 | 72 | 1019.6 |
| 20260904203559 | 63 | 282 | 9.6 | 15.6 | 0.00 | 0.07 | 0.07 | 73 | 1019.5 |
| 20260904203102 | 63 | 284 | 8.7 | 15.6 | 0.00 | 0.07 | 0.07 | 73 | 1019.7 |
| 20260904202558 | 63 | 298 | 7.8 | 15.6 | 0.00 | 0.07 | 0.07 | 74 | 1019.6 |
| 20260904202057 | 63 | 278 | 8.7 | 13.9 | 0.00 | 0.07 | 0.07 | 74 | 1019.6 |
| 20260904201603 | 63 | 294 | 8.7 | 13.9 | 0.00 | 0.07 | 0.07 | 74 | 1019.6 |
| 20260904201058 | 63 | 257 | 8.7 | 16.5 | 0.00 | 0.07 | 0.07 | 73 | 1019.5 |
| 20260904200600 | 63 | 314 | 7.0 | 16.5 | 0.00 | 0.07 | 0.07 | 74 | 1019.4 |
| 20260904200116 | 62 | 350 | 8.7 | 16.5 | 0.00 | 0.07 | 0.07 | 73 | 1019.4 |
| 20260904195558 | 62 | 253 | 8.7 | 14.8 | 0.00 | 0.07 | 0.07 | 73 | 1019.4 |
| 20260904195057 | 63 | 292 | 7.8 | 14.8 | 0.00 | 0.07 | 0.07 | 74 | 1019.4 |
| 20260904194609 | 62 | 302 | 7.0 | 14.8 | 0.00 | 0.07 | 0.07 | 74 | 1019.3 |
| 20260904194058 | 62 | 301 | 8.7 | 13.9 | 0.00 | 0.07 | 0.07 | 73 | 1019.3 |
| 20260904193603 | 63 | 255 | 8.7 | 13.9 | 0.00 | 0.07 | 0.07 | 74 | 1019.4 |
| 20260904193101 | 63 | 272 | 7.0 | 13.9 | 0.00 | 0.07 | 0.07 | 74 | 1019.2 |
| 20260904192557 | 63 | 293 | 8.7 | 18.2 | 0.00 | 0.07 | 0.07 | 73 | 1019.2 |
| 20260904192057 | 63 | 311 | 9.6 | 18.2 | 0.00 | 0.07 | 0.07 | 74 | 1019.1 |
| 20260904191603 | 63 | 277 | 10.4 | 16.5 | 0.00 | 0.07 | 0.07 | 74 | 1019.0 |
| 20260904191058 | 63 | 298 | 8.7 | 18.2 | 0.00 | 0.07 | 0.07 | 72 | 1019.1 |
| 20260904190558 | 63 | 294 | 8.7 | 19.1 | 0.00 | 0.07 | 0.07 | 72 | 1019.1 |
| 20260904190110 | 63 | 254 | 10.4 | 19.1 | 0.00 | 0.07 | 0.07 | 73 | 1019.0 |
| 20260904185557 | 63 | 279 | 10.4 | 19.1 | 0.00 | 0.07 | 0.07 | 73 | 1019.0 |
| 20260904185057 | 63 | 295 | 8.7 | 13.0 | 0.00 | 0.07 | 0.07 | 74 | 1018.9 |
| 20260904184626 | 63 | 360 | 8.7 | 16.5 | 0.00 | 0.07 | 0.07 | 73 | 1018.9 |
| 20260904184058 | 63 | 279 | 9.6 | 16.5 | 0.00 | 0.07 | 0.07 | 72 | 1018.9 |
| 20260904183558 | 63 | 309 | 10.4 | 16.5 | 0.00 | 0.07 | 0.07 | 72 | 1019.1 |
| 20260904183101 | 63 | 350 | 9.6 | 20.9 | 0.00 | 0.07 | 0.07 | 71 | 1019.0 |
| 20260904182600 | 64 | 296 | 12.2 | 20.9 | 0.00 | 0.07 | 0.07 | 71 | 1018.9 |
| 20260904182057 | 64 | 290 | 8.7 | 13.9 | 0.00 | 0.07 | 0.07 | 71 | 1018.8 |
| 20260904181607 | 64 | 360 | 6.1 | 18.2 | 0.00 | 0.07 | 0.07 | 73 | 1018.7 |
| 20260904181100 | 64 | 261 | 7.8 | 18.2 | 0.00 | 0.07 | 0.07 | 72 | 1018.7 |
| 20260904180601 | 65 | 304 | 12.2 | 18.2 | 0.00 | 0.07 | 0.07 | 71 | 1018.7 |
| 20260904180109 | 65 | 269 | 9.6 | 17.4 | 0.00 | 0.07 | 0.07 | 71 | 1018.7 |
| 20260904175600 | 65 | 236 | 7.8 | 14.8 | 0.00 | 0.07 | 0.07 | 71 | 1018.6 |
| 20260904175100 | 65 | 310 | 8.7 | 16.5 | 0.00 | 0.07 | 0.07 | 70 | 1018.6 |
| 20260904174608 | 65 | 295 | 7.8 | 16.5 | 0.00 | 0.07 | 0.07 | 71 | 1018.5 |
| 20260904174056 | 64 | 302 | 10.4 | 16.5 | 0.00 | 0.07 | 0.07 | 71 | 1018.3 |
| 20260904173558 | 64 | 268 | 8.7 | 14.8 | 0.00 | 0.07 | 0.07 | 73 | 1018.3 |
| 20260904173109 | 64 | 268 | 9.6 | 14.8 | 0.00 | 0.07 | 0.07 | 72 | 1018.4 |
| 20260904172601 | 64 | 292 | 8.7 | 15.6 | 0.00 | 0.07 | 0.07 | 71 | 1018.5 |
| 20260904172059 | 64 | 290 | 7.8 | 15.6 | 0.00 | 0.07 | 0.07 | 73 | 1018.5 |
| 20260904171608 | 64 | 288 | 7.8 | 15.6 | 0.00 | 0.07 | 0.07 | 72 | 1018.6 |
| 20260904171058 | 64 | 263 | 6.1 | 20.0 | 0.00 | 0.07 | 0.07 | 72 | 1018.4 |
| 20260904170600 | 64 | 262 | 5.2 | 20.9 | 0.00 | 0.07 | 0.07 | 70 | 1018.2 |
| 20260904170110 | 64 | 322 | 10.4 | 20.9 | 0.00 | 0.07 | 0.07 | 71 | 1018.3 |
| 20260904165557 | 64 | 275 | 9.6 | 20.9 | 0.00 | 0.07 | 0.07 | 71 | 1018.2 |
| 20260904165058 | 64 | 287 | 9.6 | 20.9 | 0.00 | 0.07 | 0.07 | 72 | 1018.3 |
| 20260904164607 | 64 | 329 | 8.7 | 15.6 | 0.00 | 0.07 | 0.07 | 71 | 1018.3 |
| 20260904164102 | 64 | 319 | 8.7 | 19.1 | 0.00 | 0.07 | 0.07 | 71 | 1018.1 |
| 20260904163558 | 64 | 251 | 7.8 | 19.1 | 0.00 | 0.07 | 0.07 | 70 | 1018.1 |
| 20260904163102 | 64 | 281 | 8.7 | 17.4 | 0.00 | 0.07 | 0.07 | 71 | 1017.9 |
| 20260904162558 | 64 | 314 | 9.6 | 17.4 | 0.00 | 0.07 | 0.07 | 72 | 1017.9 |
| 20260904162058 | 64 | 269 | 7.0 | 17.4 | 0.00 | 0.07 | 0.07 | 72 | 1018.0 |
| 20260904161613 | 64 | 296 | 7.0 | 17.4 | 0.00 | 0.07 | 0.07 | 71 | 1017.9 |
| 20260904161100 | 64 | 265 | 8.7 | 15.6 | 0.00 | 0.07 | 0.07 | 71 | 1018.0 |
| 20260904160600 | 64 | 275 | 8.7 | 16.5 | 0.00 | 0.07 | 0.07 | 72 | 1017.9 |
| 20260904160107 | 64 | 297 | 9.6 | 16.5 | 0.00 | 0.07 | 0.07 | 70 | 1017.8 |
| 20260904155559 | 64 | 293 | 9.6 | 15.6 | 0.00 | 0.07 | 0.07 | 71 | 1018.0 |
| 20260904155100 | 64 | 283 | 8.7 | 18.2 | 0.00 | 0.07 | 0.07 | 71 | 1017.9 |